Augusta, ME

3:28 PM EDT on October 22, 2017 (GMT -0400)
Augusta State

Weather History for KAUG - March, 2014

Change the Weather History Date:

Monday, March 17, 2014

  Actual Average Record
Temperature  
Mean Temperature 15 °F 32 °F  
Max Temperature 24 °F 41 °F 62 °F (2010)
Min Temperature 5 °F 24 °F 0 °F (1967)
Degree Days  
Heating Degree Days 50 33  
Month to date heating degree days 740 604  
Since 1 July heating degree days 6246 5947  
Cooling Degree Days 0 0  
Month to date cooling degree days 0 0  
Year to date cooling degree days 0 0  
Moisture  
Dew Point -7 °F    
Average Humidity 41    
Maximum Humidity 55    
Minimum Humidity 27    
Precipitation  
Precipitation 0.00 in 0.11 in 1.37 in (1974)
Month to date precipitation 1.15 1.71  
Year to date precipitation 5.94 6.75  
Sea Level Pressure  
Sea Level Pressure 30.14 in    
Wind  
Wind Speed 7 mph (WNW)    
Max Wind Speed 17 mph    
Max Gust Speed 23 mph    
Visibility 10 miles    
Events      
T = Trace of Precipitation, MM = Missing Value Source: NWS Daily Summary

Daily Weather History Graph

Daily Weather History Graph

Search for Another Location

Airport or City:

Trip Planner

Search our weather history database for the weather conditions in past years. The results will help you decide how hot, cold, wet, or windy it might be!

Date:

Astronomy

Mar. 17, 2014 Rise Set
Actual Time 6:47 AM EDT 6:47 PM EDT
Civil Twilight 6:19 AM EDT 7:16 PM EDT
Nautical Twilight 5:45 AM EDT 7:50 PM EDT
Astronomical Twilight 5:10 AM EDT 8:25 PM EDT
Moon 8:05 PM EDT (3/17) 6:59 AM EDT (3/17)
Length of Visible Light 12h 57m
Length of Day
11h 59m
Full, 99% of the Moon is Illuminated
Mar 17
Full
Mar 23
Last Quarter
Mar 30
New
Apr 7
First Quarter
Apr 15
Full

Hourly Weather History & Observations

Time (EDT) Temp. Windchill Dew Point Humidity Pressure Visibility Wind Dir Wind Speed Gust Speed Precip Events Conditions
12:53 AM 9.0 °F -0.9 °F -9.0 °F 44% 30.20 in 10.0 mi West 5.8 mph - N/A   Clear
1:53 AM 8.1 °F -6.2 °F -9.0 °F 46% 30.19 in 10.0 mi WNW 10.4 mph - N/A   Clear
2:53 AM 8.1 °F -4.3 °F -9.0 °F 46% 30.17 in 10.0 mi West 8.1 mph - N/A   Clear
3:53 AM 7.0 °F - -9.0 °F 48% 30.17 in 10.0 mi Calm Calm - N/A   Clear
4:53 AM 6.1 °F -2.8 °F -9.0 °F 50% 30.16 in 10.0 mi WNW 4.6 mph - N/A   Clear
5:53 AM 6.1 °F -2.8 °F -8.0 °F 53% 30.16 in 10.0 mi WNW 4.6 mph - N/A   Clear
6:53 AM 5.0 °F -4.1 °F -9.0 °F 52% 30.18 in 10.0 mi West 4.6 mph - N/A   Clear
7:53 AM 6.1 °F -7.8 °F -9.0 °F 50% 30.20 in 10.0 mi West 9.2 mph - N/A   Clear
8:53 AM 8.1 °F -3.2 °F -9.9 °F 44% 30.19 in 10.0 mi WNW 6.9 mph - N/A   Clear
9:53 AM 9.0 °F -2.2 °F -9.9 °F 42% 30.19 in 10.0 mi West 6.9 mph - N/A   Clear
10:53 AM 12.0 °F 1.5 °F -9.0 °F 39% 30.16 in 10.0 mi Variable 6.9 mph - N/A   Clear
11:53 AM 14.0 °F 5.1 °F -9.9 °F 34% 30.14 in 10.0 mi Variable 5.8 mph - N/A   Clear
12:53 PM 18.0 °F 6.9 °F -8.0 °F 31% 30.09 in 10.0 mi WNW 9.2 mph - N/A   Clear
1:53 PM 19.0 °F 6.8 °F -8.0 °F 30% 30.09 in 10.0 mi West 11.5 mph 19.6 mph N/A   Clear
2:53 PM 21.0 °F 14.6 °F -6.0 °F 30% 30.06 in 10.0 mi Variable 4.6 mph - N/A   Clear
3:53 PM 23.0 °F 13.1 °F -6.0 °F 28% 30.04 in 10.0 mi WNW 9.2 mph 17.3 mph N/A   Clear
4:53 PM 23.0 °F 10.1 °F -6.0 °F 28% 30.05 in 10.0 mi NNW 15.0 mph - N/A   Clear
5:53 PM 23.0 °F 11.7 °F -7.1 °F 27% 30.07 in 10.0 mi NW 11.5 mph 18.4 mph N/A   Clear
6:53 PM 19.9 °F 10.1 °F -5.1 °F 33% 30.09 in 10.0 mi NNW 8.1 mph - N/A   Clear
7:53 PM 18.0 °F 9.8 °F -5.1 °F 36% 30.11 in 10.0 mi NW 5.8 mph - N/A   Clear
8:53 PM 16.0 °F 4.4 °F -2.9 °F 43% 30.14 in 10.0 mi NNW 9.2 mph - N/A   Clear
9:53 PM 15.1 °F 6.4 °F -4.0 °F 43% 30.16 in 10.0 mi NNW 5.8 mph - N/A   Clear
10:53 PM 14.0 °F 5.1 °F -5.1 °F 43% 30.17 in 10.0 mi NW 5.8 mph - N/A   Clear
11:53 PM 12.9 °F 0.7 °F -5.1 °F 45% 30.18 in 10.0 mi NNW 9.2 mph - N/A   Clear